Location: ??????
(42.0089°N, 44.3281°E)
Time: 18:52:49
(UTC+00:00)

USA 267 - Pass Details

Date: 05 June 2022
Orbit: 1101 x 1106 km, 123.0° (Epoch: 28 June)

Event Time Altitude Azimuth Distance (km) Brightness Sun altitude
Rises 20:23:54 0° 82° (E) 3,917 6.1 -24.8°
Reaches altitude 10° 20:26:43 10° 72° (ENE) 2,960 5.6 -24.9°
Maximum altitude 20:32:06 29° 16° (NNE) 1,914 5.1 -25.0°
Drops below altitude 10° 20:37:30 10° 320° (NW) 2,965 6.2 -25.1°
Sets 20:40:19 0° 310° (NW) 3,925 6.8 -25.2°
